Location: Góry Miechowskie
(50.3599°N, 20.1803°E)
Time: 21:42:38
(UTC+00:00)

Tiros 1 despin weight - Pass Details

Date: 15 September 2024
Orbit: 572 x 614 km, 48.2° (Epoch: 12 October)

Event Time Altitude Azimuth Distance (km) Brightness Sun altitude
Rises 03:50:28 0° 254° (WSW) 2,877 - -4.8°
Exits shadow 03:51:47 - 253° (WSW) 2,362 ? -4.6°
Reaches altitude 10° 03:52:47 10° 251° (WSW) 1,976 ? -4.4°
Maximum altitude 03:57:16 63° 171° (S) 691 ? -3.7°
Drops below altitude 10° 04:01:47 10° 91° (E) 1,980 ? -3.0°
Sets 04:04:06 0° 88° (E) 2,883 ? -2.6°
